Date_Time,Julian_Date,Latitude,Longitude,Instrument_Depth,U,V,Speed,Direction
(yyyy-mm-dd hh:mn:ss UTC),(JD),(+ deg. North),(+ deg. East),(m),(cm/s),(cm/s),(cm/s),(deg True)
1983-09-23 20:30:00 UTC,2445601.354167,29.6650,-93.4789,0037,-1.72,10.86,11.0000,351.0000
1983-09-23 21:00:00 UTC,2445601.375000,29.6650,-93.4789,0037,-3.22,10.52,11.0000,343.0000
1983-09-23 21:30:00 UTC,2445601.395833,29.6650,-93.4789,0037,-4.64,7.71,9.0000,329.0000
1983-09-23 22:00:00 UTC,2445601.416667,29.6650,-93.4789,0037,-3.86,4.60,6.0000,320.0000
1983-09-23 22:30:00 UTC,2445601.437500,29.6650,-93.4789,0037,-1.18,1.62,2.0000,324.0000
1983-09-23 23:00:00 UTC,2445601.458333,29.6650,-93.4789,0037,0.33,0.95,1.0000,19.0000
1983-09-23 23:30:00 UTC,2445601.479167,29.6650,-93.4789,0037,1.26,1.55,2.0000,39.0000
1983-09-24 00:00:00 UTC,2445601.500000,29.6650,-93.4789,0037,1.93,2.30,3.0000,40.0000
1983-09-24 00:30:00 UTC,2445601.520833,29.6650,-93.4789,0037,0.81,1.83,2.0000,24.0000
1983-09-24 01:00:00 UTC,2445601.541667,29.6650,-93.4789,0037,-1.94,0.48,2.0000,284.0000
1983-09-24 01:30:00 UTC,2445601.562500,29.6650,-93.4789,0037,-4.99,0.35,5.0000,274.0000
1983-09-24 02:00:00 UTC,2445601.583333,29.6650,-93.4789,0037,-7.85,1.53,8.0000,281.0000
1983-09-24 02:30:00 UTC,2445601.604167,29.6650,-93.4789,0037,-8.51,2.93,9.0000,289.0000
1983-09-24 03:00:00 UTC,2445601.625000,29.6650,-93.4789,0037,-9.40,3.42,10.0000,290.0000
1983-09-24 03:30:00 UTC,2445601.645833,29.6650,-93.4789,0037,-9.61,2.76,10.0000,286.0000
1983-09-24 04:00:00 UTC,2445601.666667,29.6650,-93.4789,0037,-9.56,2.92,10.0000,287.0000
1983-09-24 04:30:00 UTC,2445601.687500,29.6650,-93.4789,0037,-9.51,3.09,10.0000,288.0000
1983-09-24 05:00:00 UTC,2445601.708333,29.6650,-93.4789,0037,-9.70,2.42,10.0000,284.0000
1983-09-24 05:30:00 UTC,2445601.729167,29.6650,-93.4789,0037,-9.74,2.25,10.0000,283.0000
1983-09-24 06:00:00 UTC,2445601.750000,29.6650,-93.4789,0037,-10.27,3.94,11.0000,291.0000
1983-09-24 06:30:00 UTC,2445601.770833,29.6650,-93.4789,0037,-9.80,4.99,11.0000,297.0000
1983-09-24 07:00:00 UTC,2445601.791667,29.6650,-93.4789,0037,-9.80,4.99,11.0000,297.0000
1983-09-24 07:30:00 UTC,2445601.812500,29.6650,-93.4789,0037,-9.80,4.99,11.0000,297.0000
1983-09-24 08:00:00 UTC,2445601.833333,29.6650,-93.4789,0037,-10.69,5.45,12.0000,297.0000
1983-09-24 08:30:00 UTC,2445601.854167,29.6650,-93.4789,0037,-10.79,5.26,12.0000,296.0000
1983-09-24 09:00:00 UTC,2445601.875000,29.6650,-93.4789,0037,-10.79,5.26,12.0000,296.0000
1983-09-24 09:30:00 UTC,2445601.895833,29.6650,-93.4789,0037,-10.79,5.26,12.0000,296.0000
1983-09-24 10:00:00 UTC,2445601.916667,29.6650,-93.4789,0037,-10.88,5.07,12.0000,295.0000
1983-09-24 10:30:00 UTC,2445601.937500,29.6650,-93.4789,0037,-10.60,5.63,12.0000,298.0000
1983-09-24 11:00:00 UTC,2445601.958333,29.6650,-93.4789,0037,-10.39,6.00,12.0000,300.0000
1983-09-24 11:30:00 UTC,2445601.979167,29.6650,-93.4789,0037,-9.33,5.83,11.0000,302.0000
1983-09-24 12:00:00 UTC,2445602.000000,29.6650,-93.4789,0037,-8.83,4.69,10.0000,298.0000
1983-09-24 12:30:00 UTC,2445602.020833,29.6650,-93.4789,0037,-10.52,3.22,11.0000,287.0000
1983-09-24 13:00:00 UTC,2445602.041667,29.6650,-93.4789,0037,-11.59,3.11,12.0000,285.0000
1983-09-24 13:30:00 UTC,2445602.062500,29.6650,-93.4789,0037,-10.96,4.88,12.0000,294.0000
1983-09-24 14:00:00 UTC,2445602.083333,29.6650,-93.4789,0037,-9.43,5.67,11.0000,301.0000
1983-09-24 14:30:00 UTC,2445602.104167,29.6650,-93.4789,0037,-10.20,4.12,11.0000,292.0000
1983-09-24 15:00:00 UTC,2445602.125000,29.6650,-93.4789,0037,-11.85,1.88,12.0000,279.0000
1983-09-24 15:30:00 UTC,2445602.145833,29.6650,-93.4789,0037,-10.96,0.96,11.0000,275.0000
1983-09-24 16:00:00 UTC,2445602.166667,29.6650,-93.4789,0037,-9.99,0.52,10.0000,273.0000
1983-09-24 16:30:00 UTC,2445602.187500,29.6650,-93.4789,0037,-8.99,0.31,9.0000,272.0000
1983-09-24 17:00:00 UTC,2445602.208333,29.6650,-93.4789,0037,-9.93,1.22,10.0000,277.0000
1983-09-24 17:30:00 UTC,2445602.229167,29.6650,-93.4789,0037,-10.72,2.47,11.0000,283.0000
1983-09-24 18:00:00 UTC,2445602.250000,29.6650,-93.4789,0037,-11.41,3.71,12.0000,288.0000
1983-09-24 18:30:00 UTC,2445602.270833,29.6650,-93.4789,0037,-10.27,3.94,11.0000,291.0000
1983-09-24 19:00:00 UTC,2445602.291667,29.6650,-93.4789,0037,-7.25,3.38,8.0000,295.0000
1983-09-24 19:30:00 UTC,2445602.312500,29.6650,-93.4789,0037,-2.93,2.73,4.0000,313.0000
1983-09-24 20:00:00 UTC,2445602.333333,29.6650,-93.4789,0037,0.48,1.94,2.0000,14.0000
1983-09-24 20:30:00 UTC,2445602.354167,29.6650,-93.4789,0037,1.60,1.20,2.0000,53.0000
1983-09-24 21:00:00 UTC,2445602.375000,29.6650,-93.4789,0037,2.92,0.67,3.0000,77.0000
1983-09-24 21:30:00 UTC,2445602.395833,29.6650,-93.4789,0037,4.00,-0.14,4.0000,92.0000
1983-09-24 22:00:00 UTC,2445602.416667,29.6650,-93.4789,0037,4.96,-0.61,5.0000,97.0000
1983-09-24 22:30:00 UTC,2445602.437500,29.6650,-93.4789,0037,5.80,-1.55,6.0000,105.0000
1983-09-24 23:00:00 UTC,2445602.458333,29.6650,-93.4789,0037,6.39,-2.85,7.0000,114.0000
1983-09-24 23:30:00 UTC,2445602.479167,29.6650,-93.4789,0037,6.06,-3.50,7.0000,120.0000
1983-09-25 00:00:00 UTC,2445602.500000,29.6650,-93.4789,0037,5.94,-3.71,7.0000,122.0000
1983-09-25 00:30:00 UTC,2445602.520833,29.6650,-93.4789,0037,6.78,-4.24,8.0000,122.0000
1983-09-25 01:00:00 UTC,2445602.541667,29.6650,-93.4789,0037,6.63,-4.47,8.0000,124.0000
1983-09-25 01:30:00 UTC,2445602.562500,29.6650,-93.4789,0037,6.78,-4.24,8.0000,122.0000
1983-09-25 02:00:00 UTC,2445602.583333,29.6650,-93.4789,0037,6.24,-3.18,7.0000,117.0000
1983-09-25 02:30:00 UTC,2445602.604167,29.6650,-93.4789,0037,5.44,-2.54,6.0000,115.0000
1983-09-25 03:00:00 UTC,2445602.625000,29.6650,-93.4789,0037,4.41,-2.35,5.0000,118.0000
1983-09-25 03:30:00 UTC,2445602.645833,29.6650,-93.4789,0037,4.67,-1.79,5.0000,111.0000
1983-09-25 04:00:00 UTC,2445602.666667,29.6650,-93.4789,0037,3.99,-0.28,4.0000,94.0000
1983-09-25 04:30:00 UTC,2445602.687500,29.6650,-93.4789,0037,2.90,0.78,3.0000,75.0000
1983-09-25 05:00:00 UTC,2445602.708333,29.6650,-93.4789,0037,1.78,0.91,2.0000,63.0000
1983-09-25 05:30:00 UTC,2445602.729167,29.6650,-93.4789,0037,-0.48,-0.87,1.0000,209.0000
1983-09-25 06:00:00 UTC,2445602.750000,29.6650,-93.4789,0037,-3.06,-2.57,4.0000,230.0000
1983-09-25 06:30:00 UTC,2445602.770833,29.6650,-93.4789,0037,-5.64,-2.05,6.0000,250.0000
1983-09-25 07:00:00 UTC,2445602.791667,29.6650,-93.4789,0037,-7.96,-0.84,8.0000,264.0000
1983-09-25 07:30:00 UTC,2445602.812500,29.6650,-93.4789,0037,-9.99,0.52,10.0000,273.0000
1983-09-25 08:00:00 UTC,2445602.833333,29.6650,-93.4789,0037,-10.83,1.91,11.0000,280.0000
1983-09-25 08:30:00 UTC,2445602.854167,29.6650,-93.4789,0037,-10.52,3.22,11.0000,287.0000
1983-09-25 09:00:00 UTC,2445602.875000,29.6650,-93.4789,0037,-11.20,4.30,12.0000,291.0000
1983-09-25 09:30:00 UTC,2445602.895833,29.6650,-93.4789,0037,-12.29,4.23,13.0000,289.0000
1983-09-25 10:00:00 UTC,2445602.916667,29.6650,-93.4789,0037,-11.59,3.11,12.0000,285.0000
1983-09-25 10:30:00 UTC,2445602.937500,29.6650,-93.4789,0037,-11.74,2.49,12.0000,282.0000
1983-09-25 11:00:00 UTC,2445602.958333,29.6650,-93.4789,0037,-11.78,2.29,12.0000,281.0000
1983-09-25 11:30:00 UTC,2445602.979167,29.6650,-93.4789,0037,-11.78,2.29,12.0000,281.0000
1983-09-25 12:00:00 UTC,2445603.000000,29.6650,-93.4789,0037,-11.69,2.70,12.0000,283.0000
1983-09-25 12:30:00 UTC,2445603.020833,29.6650,-93.4789,0037,-11.59,3.11,12.0000,285.0000
1983-09-25 13:00:00 UTC,2445603.041667,29.6650,-93.4789,0037,-11.48,3.51,12.0000,287.0000
1983-09-25 13:30:00 UTC,2445603.062500,29.6650,-93.4789,0037,-11.28,4.10,12.0000,290.0000
1983-09-25 14:00:00 UTC,2445603.083333,29.6650,-93.4789,0037,-11.13,4.50,12.0000,292.0000
1983-09-25 14:30:00 UTC,2445603.104167,29.6650,-93.4789,0037,-10.05,4.47,11.0000,294.0000
1983-09-25 15:00:00 UTC,2445603.125000,29.6650,-93.4789,0037,-7.13,3.63,8.0000,297.0000
1983-09-25 15:30:00 UTC,2445603.145833,29.6650,-93.4789,0037,-3.39,2.12,4.0000,302.0000
1983-09-25 16:00:00 UTC,2445603.166667,29.6650,-93.4789,0037,-1.06,1.70,2.0000,328.0000
1983-09-25 16:30:00 UTC,2445603.187500,29.6650,-93.4789,0037,0.28,1.98,2.0000,8.0000
1983-09-25 17:00:00 UTC,2445603.208333,29.6650,-93.4789,0037,1.56,3.68,4.0000,23.0000
1983-09-25 17:30:00 UTC,2445603.229167,29.6650,-93.4789,0037,2.51,6.54,7.0000,21.0000
1983-09-25 18:00:00 UTC,2445603.250000,29.6650,-93.4789,0037,3.00,7.42,8.0000,22.0000
1983-09-25 18:30:00 UTC,2445603.270833,29.6650,-93.4789,0037,2.63,5.39,6.0000,26.0000
1983-09-25 19:00:00 UTC,2445603.291667,29.6650,-93.4789,0037,1.27,2.72,3.0000,25.0000
1983-09-25 19:30:00 UTC,2445603.312500,29.6650,-93.4789,0037,0.35,1.97,2.0000,10.0000
1983-09-25 20:00:00 UTC,2445603.333333,29.6650,-93.4789,0037,-0.53,0.85,1.0000,328.0000
1983-09-25 20:30:00 UTC,2445603.354167,29.6650,-93.4789,0037,-1.98,0.31,2.0000,279.0000
1983-09-25 21:00:00 UTC,2445603.375000,29.6650,-93.4789,0037,-5.67,1.95,6.0000,289.0000
1983-09-25 21:30:00 UTC,2445603.395833,29.6650,-93.4789,0037,-9.06,4.23,10.0000,295.0000
1983-09-25 22:00:00 UTC,2445603.416667,29.6650,-93.4789,0037,-9.95,6.71,12.0000,304.0000
1983-09-25 22:30:00 UTC,2445603.437500,29.6650,-93.4789,0037,-8.03,8.92,12.0000,318.0000
1983-09-25 23:00:00 UTC,2445603.458333,29.6650,-93.4789,0037,-6.54,10.06,12.0000,327.0000
1983-09-25 23:30:00 UTC,2445603.479167,29.6650,-93.4789,0037,-5.16,7.37,9.0000,325.0000
1983-09-26 00:00:00 UTC,2445603.500000,29.6650,-93.4789,0037,-4.41,5.44,7.0000,321.0000
1983-09-26 00:30:00 UTC,2445603.520833,29.6650,-93.4789,0037,-2.72,4.19,5.0000,327.0000
1983-09-26 01:00:00 UTC,2445603.541667,29.6650,-93.4789,0037,-0.56,0.83,1.0000,326.0000
1983-09-26 01:30:00 UTC,2445603.562500,29.6650,-93.4789,0037,0.21,-2.99,3.0000,176.0000
1983-09-26 02:00:00 UTC,2445603.583333,29.6650,-93.4789,0037,0.44,-4.98,5.0000,175.0000
1983-09-26 02:30:00 UTC,2445603.604167,29.6650,-93.4789,0037,1.45,-5.82,6.0000,166.0000
1983-09-26 03:00:00 UTC,2445603.625000,29.6650,-93.4789,0037,3.18,-6.24,7.0000,153.0000
1983-09-26 03:30:00 UTC,2445603.645833,29.6650,-93.4789,0037,4.32,-4.17,6.0000,134.0000
1983-09-26 04:00:00 UTC,2445603.666667,29.6650,-93.4789,0037,5.20,-3.00,6.0000,120.0000
1983-09-26 04:30:00 UTC,2445603.687500,29.6650,-93.4789,0037,4.57,-2.03,5.0000,114.0000
1983-09-26 05:00:00 UTC,2445603.708333,29.6650,-93.4789,0037,4.00,0.14,4.0000,88.0000
1983-09-26 05:30:00 UTC,2445603.729167,29.6650,-93.4789,0037,3.99,3.01,5.0000,53.0000
1983-09-26 06:00:00 UTC,2445603.750000,29.6650,-93.4789,0037,2.39,6.58,7.0000,20.0000
1983-09-26 06:30:00 UTC,2445603.770833,29.6650,-93.4789,0037,0.00,10.00,10.0000,0.0000
1983-09-26 07:00:00 UTC,2445603.791667,29.6650,-93.4789,0037,-0.63,11.98,12.0000,357.0000
1983-09-26 07:30:00 UTC,2445603.812500,29.6650,-93.4789,0037,0.73,13.98,14.0000,3.0000
1983-09-26 08:00:00 UTC,2445603.833333,29.6650,-93.4789,0037,1.22,13.95,14.0000,5.0000
1983-09-26 08:30:00 UTC,2445603.854167,29.6650,-93.4789,0037,0.00,13.00,13.0000,0.0000
1983-09-26 09:00:00 UTC,2445603.875000,29.6650,-93.4789,0037,-0.96,10.96,11.0000,355.0000
1983-09-26 09:30:00 UTC,2445603.895833,29.6650,-93.4789,0037,-1.56,8.86,9.0000,350.0000
1983-09-26 10:00:00 UTC,2445603.916667,29.6650,-93.4789,0037,-2.21,7.69,8.0000,344.0000
1983-09-26 10:30:00 UTC,2445603.937500,29.6650,-93.4789,0037,-1.93,6.73,7.0000,344.0000
1983-09-26 11:00:00 UTC,2445603.958333,29.6650,-93.4789,0037,-0.73,5.96,6.0000,353.0000
1983-09-26 11:30:00 UTC,2445603.979167,29.6650,-93.4789,0037,0.62,2.93,3.0000,12.0000
1983-09-26 12:00:00 UTC,2445604.000000,29.6650,-93.4789,0037,1.84,0.78,2.0000,67.0000
1983-09-26 12:30:00 UTC,2445604.020833,29.6650,-93.4789,0037,4.41,-2.35,5.0000,118.0000
1983-09-26 13:00:00 UTC,2445604.041667,29.6650,-93.4789,0037,6.89,-5.79,9.0000,130.0000
1983-09-26 13:30:00 UTC,2445604.062500,29.6650,-93.4789,0037,7.37,-5.16,9.0000,125.0000
1983-09-26 14:00:00 UTC,2445604.083333,29.6650,-93.4789,0037,7.37,-5.16,9.0000,125.0000
1983-09-26 14:30:00 UTC,2445604.104167,29.6650,-93.4789,0037,5.99,-9.23,11.0000,147.0000
1983-09-26 15:00:00 UTC,2445604.125000,29.6650,-93.4789,0037,3.91,-11.35,12.0000,161.0000
1983-09-26 15:30:00 UTC,2445604.145833,29.6650,-93.4789,0037,4.10,-11.28,12.0000,160.0000
1983-09-26 16:00:00 UTC,2445604.166667,29.6650,-93.4789,0037,3.94,-10.27,11.0000,159.0000
1983-09-26 16:30:00 UTC,2445604.187500,29.6650,-93.4789,0037,4.30,-11.20,12.0000,159.0000
1983-09-26 17:00:00 UTC,2445604.208333,29.6650,-93.4789,0037,4.69,-11.05,12.0000,157.0000
1983-09-26 17:30:00 UTC,2445604.229167,29.6650,-93.4789,0037,4.50,-11.13,12.0000,158.0000
1983-09-26 18:00:00 UTC,2445604.250000,29.6650,-93.4789,0037,2.90,-11.64,12.0000,166.0000
1983-09-26 18:30:00 UTC,2445604.270833,29.6650,-93.4789,0037,1.25,-11.93,12.0000,174.0000
1983-09-26 19:00:00 UTC,2445604.291667,29.6650,-93.4789,0037,2.49,-11.74,12.0000,168.0000
1983-09-26 19:30:00 UTC,2445604.312500,29.6650,-93.4789,0037,4.87,-12.05,13.0000,158.0000
1983-09-26 20:00:00 UTC,2445604.333333,29.6650,-93.4789,0037,4.87,-12.05,13.0000,158.0000
1983-09-26 20:30:00 UTC,2445604.354167,29.6650,-93.4789,0037,2.85,-10.63,11.0000,165.0000
1983-09-26 21:00:00 UTC,2445604.375000,29.6650,-93.4789,0037,0.73,-2.91,3.0000,166.0000
1983-09-26 21:30:00 UTC,2445604.395833,29.6650,-93.4789,0037,-0.61,4.96,5.0000,353.0000
1983-09-26 22:00:00 UTC,2445604.416667,29.6650,-93.4789,0037,-0.97,6.93,7.0000,352.0000
1983-09-26 22:30:00 UTC,2445604.437500,29.6650,-93.4789,0037,-0.73,6.96,7.0000,354.0000
1983-09-26 23:00:00 UTC,2445604.458333,29.6650,-93.4789,0037,0.12,7.00,7.0000,1.0000
1983-09-26 23:30:00 UTC,2445604.479167,29.6650,-93.4789,0037,1.94,7.76,8.0000,14.0000
1983-09-27 00:00:00 UTC,2445604.500000,29.6650,-93.4789,0037,5.03,7.46,9.0000,34.0000
1983-09-27 00:30:00 UTC,2445604.520833,29.6650,-93.4789,0037,7.88,6.16,10.0000,52.0000
1983-09-27 01:00:00 UTC,2445604.541667,29.6650,-93.4789,0037,9.97,4.65,11.0000,65.0000
1983-09-27 01:30:00 UTC,2445604.562500,29.6650,-93.4789,0037,12.61,3.14,13.0000,76.0000
1983-09-27 02:00:00 UTC,2445604.583333,29.6650,-93.4789,0037,12.90,1.58,13.0000,83.0000
1983-09-27 02:30:00 UTC,2445604.604167,29.6650,-93.4789,0037,12.67,2.92,13.0000,77.0000
1983-09-27 03:00:00 UTC,2445604.625000,29.6650,-93.4789,0037,9.58,7.22,12.0000,53.0000
1983-09-27 03:30:00 UTC,2445604.645833,29.6650,-93.4789,0037,6.89,11.02,13.0000,32.0000
1983-09-27 04:00:00 UTC,2445604.666667,29.6650,-93.4789,0037,5.92,12.69,14.0000,25.0000
1983-09-27 04:30:00 UTC,2445604.687500,29.6650,-93.4789,0037,7.04,13.24,15.0000,28.0000
1983-09-27 05:00:00 UTC,2445604.708333,29.6650,-93.4789,0037,8.60,12.29,15.0000,35.0000
1983-09-27 05:30:00 UTC,2445604.729167,29.6650,-93.4789,0037,9.44,11.66,15.0000,39.0000
1983-09-27 06:00:00 UTC,2445604.750000,29.6650,-93.4789,0037,9.23,11.82,15.0000,38.0000
1983-09-27 06:30:00 UTC,2445604.770833,29.6650,-93.4789,0037,8.60,12.29,15.0000,35.0000
1983-09-27 07:00:00 UTC,2445604.791667,29.6650,-93.4789,0037,8.82,12.14,15.0000,36.0000
1983-09-27 07:30:00 UTC,2445604.812500,29.6650,-93.4789,0037,8.82,12.14,15.0000,36.0000
1983-09-27 08:00:00 UTC,2445604.833333,29.6650,-93.4789,0037,8.17,12.58,15.0000,33.0000
1983-09-27 08:30:00 UTC,2445604.854167,29.6650,-93.4789,0037,7.50,12.99,15.0000,30.0000
1983-09-27 09:00:00 UTC,2445604.875000,29.6650,-93.4789,0037,7.04,13.24,15.0000,28.0000
1983-09-27 09:30:00 UTC,2445604.895833,29.6650,-93.4789,0037,6.79,12.24,14.0000,29.0000
1983-09-27 10:00:00 UTC,2445604.916667,29.6650,-93.4789,0037,8.03,11.47,14.0000,35.0000
1983-09-27 10:30:00 UTC,2445604.937500,29.6650,-93.4789,0037,9.81,8.53,13.0000,49.0000
1983-09-27 11:00:00 UTC,2445604.958333,29.6650,-93.4789,0037,11.68,5.70,13.0000,64.0000
1983-09-27 11:30:00 UTC,2445604.979167,29.6650,-93.4789,0037,12.50,3.58,13.0000,74.0000
1983-09-27 12:00:00 UTC,2445605.000000,29.6650,-93.4789,0037,12.84,2.03,13.0000,81.0000
1983-09-27 12:30:00 UTC,2445605.020833,29.6650,-93.4789,0037,13.00,0.23,13.0000,89.0000
1983-09-27 13:00:00 UTC,2445605.041667,29.6650,-93.4789,0037,13.86,-1.95,14.0000,98.0000
1983-09-27 13:30:00 UTC,2445605.062500,29.6650,-93.4789,0037,13.52,-3.62,14.0000,105.0000
1983-09-27 14:00:00 UTC,2445605.083333,29.6650,-93.4789,0037,13.16,-4.79,14.0000,110.0000
1983-09-27 14:30:00 UTC,2445605.104167,29.6650,-93.4789,0037,12.79,-5.69,14.0000,114.0000
1983-09-27 15:00:00 UTC,2445605.125000,29.6650,-93.4789,0037,12.24,-6.79,14.0000,119.0000
1983-09-27 15:30:00 UTC,2445605.145833,29.6650,-93.4789,0037,12.14,-8.82,15.0000,126.0000
1983-09-27 16:00:00 UTC,2445605.166667,29.6650,-93.4789,0037,11.15,-10.04,15.0000,132.0000
1983-09-27 16:30:00 UTC,2445605.187500,29.6650,-93.4789,0037,10.23,-10.97,15.0000,137.0000
1983-09-27 17:00:00 UTC,2445605.208333,29.6650,-93.4789,0037,10.04,-11.15,15.0000,138.0000
1983-09-27 17:30:00 UTC,2445605.229167,29.6650,-93.4789,0037,9.84,-11.32,15.0000,139.0000
1983-09-27 18:00:00 UTC,2445605.250000,29.6650,-93.4789,0037,9.03,-11.98,15.0000,143.0000
1983-09-27 18:30:00 UTC,2445605.270833,29.6650,-93.4789,0037,7.95,-12.72,15.0000,148.0000
1983-09-27 19:00:00 UTC,2445605.291667,29.6650,-93.4789,0037,7.04,-13.24,15.0000,152.0000
1983-09-27 19:30:00 UTC,2445605.312500,29.6650,-93.4789,0037,5.69,-12.79,14.0000,156.0000
1983-09-27 20:00:00 UTC,2445605.333333,29.6650,-93.4789,0037,3.86,-13.46,14.0000,164.0000
1983-09-27 20:30:00 UTC,2445605.354167,29.6650,-93.4789,0037,-0.23,-13.00,13.0000,181.0000
1983-09-27 21:00:00 UTC,2445605.375000,29.6650,-93.4789,0037,-3.91,-11.35,12.0000,199.0000
1983-09-27 21:30:00 UTC,2445605.395833,29.6650,-93.4789,0037,-6.18,-10.29,12.0000,211.0000
1983-09-27 22:00:00 UTC,2445605.416667,29.6650,-93.4789,0037,-8.92,-8.03,12.0000,228.0000
1983-09-27 22:30:00 UTC,2445605.437500,29.6650,-93.4789,0037,-14.82,-2.35,15.0000,261.0000
1983-09-27 23:00:00 UTC,2445605.458333,29.6650,-93.4789,0037,-17.73,3.13,18.0000,280.0000
1983-09-27 23:30:00 UTC,2445605.479167,29.6650,-93.4789,0037,-13.99,0.49,14.0000,272.0000
1983-09-28 00:00:00 UTC,2445605.500000,29.6650,-93.4789,0037,-11.48,-3.51,12.0000,253.0000
1983-09-28 00:30:00 UTC,2445605.520833,29.6650,-93.4789,0037,-13.99,-0.49,14.0000,268.0000
1983-09-28 01:00:00 UTC,2445605.541667,29.6650,-93.4789,0037,-18.35,4.92,19.0000,285.0000
1983-09-28 01:30:00 UTC,2445605.562500,29.6650,-93.4789,0037,-21.25,5.69,22.0000,285.0000
1983-09-28 02:00:00 UTC,2445605.583333,29.6650,-93.4789,0037,-20.46,4.72,21.0000,283.0000
1983-09-28 02:30:00 UTC,2445605.604167,29.6650,-93.4789,0037,-18.44,4.60,19.0000,284.0000
1983-09-28 03:00:00 UTC,2445605.625000,29.6650,-93.4789,0037,-18.26,5.24,19.0000,286.0000
1983-09-28 03:30:00 UTC,2445605.645833,29.6650,-93.4789,0037,-18.17,5.56,19.0000,287.0000
1983-09-28 04:00:00 UTC,2445605.666667,29.6650,-93.4789,0037,-18.17,5.56,19.0000,287.0000
1983-09-28 04:30:00 UTC,2445605.687500,29.6650,-93.4789,0037,-17.39,4.66,18.0000,285.0000
1983-09-28 05:00:00 UTC,2445605.708333,29.6650,-93.4789,0037,-18.65,3.63,19.0000,281.0000
1983-09-28 05:30:00 UTC,2445605.729167,29.6650,-93.4789,0037,-18.58,3.95,19.0000,282.0000
1983-09-28 06:00:00 UTC,2445605.750000,29.6650,-93.4789,0037,-17.02,5.86,18.0000,289.0000
1983-09-28 06:30:00 UTC,2445605.770833,29.6650,-93.4789,0037,-15.65,6.64,17.0000,293.0000
1983-09-28 07:00:00 UTC,2445605.791667,29.6650,-93.4789,0037,-15.04,5.47,16.0000,290.0000
1983-09-28 07:30:00 UTC,2445605.812500,29.6650,-93.4789,0037,-17.39,4.66,18.0000,285.0000
1983-09-28 08:00:00 UTC,2445605.833333,29.6650,-93.4789,0037,-20.38,5.08,21.0000,284.0000
1983-09-28 08:30:00 UTC,2445605.854167,29.6650,-93.4789,0037,-22.22,5.95,23.0000,285.0000
1983-09-28 09:00:00 UTC,2445605.875000,29.6650,-93.4789,0037,-24.62,4.34,25.0000,280.0000
1983-09-28 09:30:00 UTC,2445605.895833,29.6650,-93.4789,0037,-27.98,0.98,28.0000,272.0000
1983-09-28 10:00:00 UTC,2445605.916667,29.6650,-93.4789,0037,-32.00,-0.00,32.0000,270.0000
1983-09-28 10:30:00 UTC,2445605.937500,29.6650,-93.4789,0037,-36.98,1.29,37.0000,272.0000
1983-09-28 11:00:00 UTC,2445605.958333,29.6650,-93.4789,0037,-37.95,1.99,38.0000,273.0000
1983-09-28 11:30:00 UTC,2445605.979167,29.6650,-93.4789,0037,-35.91,2.51,36.0000,274.0000
1983-09-28 12:00:00 UTC,2445606.000000,29.6650,-93.4789,0037,-35.45,6.25,36.0000,280.0000
1983-09-28 12:30:00 UTC,2445606.020833,29.6650,-93.4789,0037,-35.90,8.95,37.0000,284.0000
1983-09-28 13:00:00 UTC,2445606.041667,29.6650,-93.4789,0037,-34.77,9.32,36.0000,285.0000
1983-09-28 13:30:00 UTC,2445606.062500,29.6650,-93.4789,0037,-34.61,9.92,36.0000,286.0000
1983-09-28 14:00:00 UTC,2445606.083333,29.6650,-93.4789,0037,-34.43,10.53,36.0000,287.0000
1983-09-28 14:30:00 UTC,2445606.104167,29.6650,-93.4789,0037,-31.88,8.54,33.0000,285.0000
1983-09-28 15:00:00 UTC,2445606.125000,29.6650,-93.4789,0037,-30.08,7.50,31.0000,284.0000
1983-09-28 15:30:00 UTC,2445606.145833,29.6650,-93.4789,0037,-27.73,8.48,29.0000,287.0000
1983-09-28 16:00:00 UTC,2445606.166667,29.6650,-93.4789,0037,-25.37,9.23,27.0000,290.0000
1983-09-28 16:30:00 UTC,2445606.187500,29.6650,-93.4789,0037,-23.78,7.73,25.0000,288.0000
1983-09-28 17:00:00 UTC,2445606.208333,29.6650,-93.4789,0037,-21.35,5.32,22.0000,284.0000
1983-09-28 17:30:00 UTC,2445606.229167,29.6650,-93.4789,0037,-19.63,3.82,20.0000,281.0000
1983-09-28 18:00:00 UTC,2445606.250000,29.6650,-93.4789,0037,-18.58,3.95,19.0000,282.0000
1983-09-28 18:30:00 UTC,2445606.270833,29.6650,-93.4789,0037,-18.51,4.27,19.0000,283.0000
1983-09-28 19:00:00 UTC,2445606.291667,29.6650,-93.4789,0037,-20.54,4.37,21.0000,282.0000
1983-09-28 19:30:00 UTC,2445606.312500,29.6650,-93.4789,0037,-23.70,3.75,24.0000,279.0000
1983-09-28 20:00:00 UTC,2445606.333333,29.6650,-93.4789,0037,-23.87,2.51,24.0000,276.0000
1983-09-28 20:30:00 UTC,2445606.354167,29.6650,-93.4789,0037,-21.92,1.92,22.0000,275.0000
1983-09-28 21:00:00 UTC,2445606.375000,29.6650,-93.4789,0037,-15.80,2.50,16.0000,279.0000
1983-09-28 21:30:00 UTC,2445606.395833,29.6650,-93.4789,0037,-13.24,4.56,14.0000,289.0000
1983-09-28 22:00:00 UTC,2445606.416667,29.6650,-93.4789,0037,-16.04,8.17,18.0000,297.0000
1983-09-28 22:30:00 UTC,2445606.437500,29.6650,-93.4789,0037,-16.45,9.50,19.0000,300.0000
1983-09-28 23:00:00 UTC,2445606.458333,29.6650,-93.4789,0037,-12.47,6.36,14.0000,297.0000
1983-09-28 23:30:00 UTC,2445606.479167,29.6650,-93.4789,0037,-10.20,4.12,11.0000,292.0000
1983-09-29 00:00:00 UTC,2445606.500000,29.6650,-93.4789,0037,-10.46,3.40,11.0000,288.0000
1983-09-29 00:30:00 UTC,2445606.520833,29.6650,-93.4789,0037,-8.77,2.02,9.0000,283.0000
1983-09-29 01:00:00 UTC,2445606.541667,29.6650,-93.4789,0037,-6.87,1.34,7.0000,281.0000
1983-09-29 01:30:00 UTC,2445606.562500,29.6650,-93.4789,0037,-4.89,1.04,5.0000,282.0000
1983-09-29 02:00:00 UTC,2445606.583333,29.6650,-93.4789,0037,-2.97,0.42,3.0000,278.0000
1983-09-29 02:30:00 UTC,2445606.604167,29.6650,-93.4789,0037,-2.00,0.07,2.0000,272.0000
1983-09-29 03:00:00 UTC,2445606.625000,29.6650,-93.4789,0037,-3.00,0.16,3.0000,273.0000
1983-09-29 03:30:00 UTC,2445606.645833,29.6650,-93.4789,0037,-3.95,0.63,4.0000,279.0000
1983-09-29 04:00:00 UTC,2445606.666667,29.6650,-93.4789,0037,-4.81,1.38,5.0000,286.0000
1983-09-29 04:30:00 UTC,2445606.687500,29.6650,-93.4789,0037,-4.76,1.55,5.0000,288.0000
1983-09-29 05:00:00 UTC,2445606.708333,29.6650,-93.4789,0037,-3.80,1.24,4.0000,288.0000
1983-09-29 05:30:00 UTC,2445606.729167,29.6650,-93.4789,0037,-2.72,1.27,3.0000,295.0000
1983-09-29 06:00:00 UTC,2445606.750000,29.6650,-93.4789,0037,-1.55,1.26,2.0000,309.0000
1983-09-29 06:30:00 UTC,2445606.770833,29.6650,-93.4789,0037,-0.00,0.00,0.0000,333.0000
1983-09-29 07:00:00 UTC,2445606.791667,29.6650,-93.4789,0037,-0.00,0.00,0.0000,332.0000
1983-09-29 07:30:00 UTC,2445606.812500,29.6650,-93.4789,0037,-0.50,0.87,1.0000,330.0000
1983-09-29 08:00:00 UTC,2445606.833333,29.6650,-93.4789,0037,-0.42,0.91,1.0000,335.0000
1983-09-29 08:30:00 UTC,2445606.854167,29.6650,-93.4789,0037,-0.39,0.92,1.0000,337.0000
1983-09-29 09:00:00 UTC,2445606.875000,29.6650,-93.4789,0037,-0.00,0.00,0.0000,338.0000
1983-09-29 09:30:00 UTC,2445606.895833,29.6650,-93.4789,0037,-0.00,0.00,0.0000,357.0000
1983-09-29 10:00:00 UTC,2445606.916667,29.6650,-93.4789,0037,0.00,0.00,0.0000,50.0000